Socorro, NM

6:33 PM MDT on June 25, 2017 (GMT -0600)
Socorro Municipal

Weather History for KONM - January, 2014

Change the Weather History Date:

Thursday, January 2, 2014

  Actual Average Record
Temperature  
Mean Temperature 38 °F -  
Max Temperature 53 °F 47 °F 53 °F (2014)
Min Temperature 23 °F 20 °F 9 °F (2011)
Degree Days  
Heating Degree Days 27    
Moisture  
Dew Point 13 °F    
Average Humidity 42    
Maximum Humidity 63    
Minimum Humidity 18    
Precipitation  
Precipitation 0.00 in - - ()
Sea Level Pressure  
Sea Level Pressure 30.32 in    
Wind  
Wind Speed 6 mph (WSW)    
Max Wind Speed 12 mph    
Max Gust Speed 16 mph    
Visibility 10 miles    
Events      
Averages and records for this station are not official NWS values.
T = Trace of Precipitation, MM = Missing Value Source: NWS Daily Summary

Daily Weather History Graph

Daily Weather History Graph

Search for Another Location

Airport or City:

Trip Planner

Search our weather history database for the weather conditions in past years. The results will help you decide how hot, cold, wet, or windy it might be!

Date:

Astronomy

Jan. 02, 2014 Rise Set
Actual Time 7:13 AM MST 5:10 PM MST
Civil Twilight 6:45 AM MST 5:37 PM MST
Nautical Twilight 6:14 AM MST 6:09 PM MST
Astronomical Twilight 5:44 AM MST 6:39 PM MST
Moon 8:02 AM MST (1/2) 7:04 PM MST (1/2)
Length of Visible Light 10h 52m
Length of Day
9h 56m
Waxing Crescent, 3% of the Moon is Illuminated
Jan 2
Waxing Crescent
Jan 7
First Quarter
Jan 15
Full
Jan 23
Last Quarter
Jan 30
New

Hourly Weather History & Observations

Time (MST) Temp. Windchill Dew Point Humidity Pressure Visibility Wind Dir Wind Speed Gust Speed Precip Events Conditions
12:15 AM 30.7 °F - 13.1 °F 48% 30.31 in 10.0 mi Calm Calm - N/A   Clear
12:35 AM 32.0 °F 25.6 °F 12.2 °F 44% 30.32 in 10.0 mi WNW 6.9 mph - N/A   Clear
12:55 AM 32.0 °F 24.2 °F 10.4 °F 41% 30.32 in 10.0 mi WNW 9.2 mph - N/A   Clear
1:15 AM 32.2 °F 23.8 °F 8.1 °F 36% 30.32 in 10.0 mi WNW 10.4 mph - N/A   Clear
1:35 AM 32.4 °F 24.6 °F 7.7 °F 36% 30.33 in 10.0 mi WNW 9.2 mph - N/A   Clear
1:55 AM 29.8 °F 24.9 °F 7.5 °F 39% 30.33 in 10.0 mi NW 4.6 mph - N/A   Clear
2:15 AM 28.9 °F 21.1 °F 9.7 °F 45% 30.33 in 10.0 mi NNE 8.1 mph - N/A   Clear
2:35 AM 25.2 °F 20.9 °F 10.2 °F 53% 30.34 in 10.0 mi NNE 3.5 mph - N/A   Clear
2:55 AM 25.3 °F 19.7 °F 10.2 °F 53% 30.34 in 10.0 mi NNW 4.6 mph - N/A   Clear
3:15 AM 23.7 °F - 9.7 °F 55% 30.35 in 10.0 mi Calm Calm - N/A   Clear
3:35 AM 23.4 °F 15.2 °F 10.8 °F 59% 30.34 in 10.0 mi NNW 6.9 mph - N/A   Clear
3:55 AM 29.5 °F 25.9 °F 13.5 °F 51% 30.35 in 10.0 mi North 3.5 mph - N/A   Clear
4:15 AM 27.3 °F 22.0 °F 13.5 °F 56% 30.35 in 10.0 mi NNW 4.6 mph - N/A   Clear
4:35 AM 26.1 °F 19.4 °F 14.0 °F 60% 30.35 in 10.0 mi NNW 5.8 mph - N/A   Clear
4:55 AM 27.3 °F 19.9 °F 15.4 °F 61% 30.35 in 10.0 mi NNW 6.9 mph - N/A   Clear
5:15 AM 26.4 °F - 14.9 °F 62% 30.35 in 10.0 mi Calm Calm - N/A   Clear
5:35 AM 24.1 °F 16.0 °F 12.9 °F 62% 30.36 in 10.0 mi NNW 6.9 mph - N/A   Clear
5:55 AM 23.4 °F 14.3 °F 12.2 °F 62% 30.36 in 10.0 mi NW 8.1 mph - N/A   Clear
6:15 AM 24.3 °F 16.3 °F 10.6 °F 56% 30.36 in 10.0 mi NW 6.9 mph - N/A   Clear
6:35 AM 23.4 °F 15.2 °F 9.9 °F 56% 30.37 in 10.0 mi NNW 6.9 mph - N/A   Clear
6:55 AM 24.4 °F 17.5 °F 9.1 °F 52% 30.37 in 10.0 mi NNW 5.8 mph - N/A   Clear
7:15 AM 23.2 °F 16.0 °F 8.6 °F 54% 30.37 in 10.0 mi NW 5.8 mph - N/A   Clear
7:35 AM 26.1 °F 20.5 °F 9.5 °F 50% 30.39 in 10.0 mi NNW 4.6 mph - N/A   Clear
7:55 AM 27.3 °F 22.0 °F 10.8 °F 50% 30.39 in 10.0 mi NNW 4.6 mph - N/A   Clear
8:15 AM 29.1 °F 24.1 °F 10.2 °F 45% 30.39 in 10.0 mi NNW 4.6 mph - N/A   Clear
8:35 AM 31.3 °F 25.6 °F 12.6 °F 46% 30.40 in 10.0 mi NNW 5.8 mph - N/A   Clear
8:55 AM 32.0 °F 27.5 °F 12.2 °F 44% 30.40 in 10.0 mi NW 4.6 mph - N/A   Clear
9:15 AM 33.3 °F 27.9 °F 9.5 °F 37% 30.42 in 10.0 mi NW 5.8 mph - N/A   Clear
9:35 AM 34.9 °F 29.9 °F 9.1 °F 34% 30.42 in 10.0 mi NNW 5.8 mph - N/A   Clear
9:55 AM 35.6 °F 30.7 °F 10.0 °F 35% 30.42 in 10.0 mi North 5.8 mph - N/A   Clear
10:15 AM 37.6 °F 32.3 °F 12.6 °F 36% 30.42 in 10.0 mi NNW 6.9 mph - N/A   Clear
10:35 AM 38.8 °F 33.8 °F 13.1 °F 35% 30.41 in 10.0 mi North 6.9 mph - N/A   Clear
10:55 AM 39.6 °F 36.3 °F 13.8 °F 35% 30.40 in 10.0 mi North 4.6 mph - N/A   Clear
11:15 AM 40.5 °F - 14.5 °F 35% 30.39 in 10.0 mi Calm Calm - N/A   Clear
11:35 AM 41.7 °F 39.8 °F 14.0 °F 32% 30.38 in 10.0 mi NNE 3.5 mph - N/A   Clear
11:55 AM 43.3 °F - 14.0 °F 31% 30.36 in 10.0 mi Calm Calm - N/A   Clear
12:15 PM 44.1 °F - 14.2 °F 30% 30.36 in 10.0 mi Calm Calm - N/A   Clear
12:35 PM 46.4 °F - 14.0 °F 27% 30.34 in 10.0 mi Calm Calm - N/A   Clear
12:55 PM 47.7 °F - 13.6 °F 26% 30.32 in 10.0 mi SE 3.5 mph - N/A   Clear
1:15 PM 50.0 °F - 12.9 °F 23% 30.30 in 10.0 mi SSE 5.8 mph - N/A   Clear
1:35 PM 50.5 °F - 12.4 °F 22% 30.30 in 10.0 mi SSE 6.9 mph - N/A   Clear
1:55 PM 51.1 °F - 12.2 °F 21% 30.29 in 10.0 mi SSE 6.9 mph - N/A   Clear
2:15 PM 52.5 °F - 11.1 °F 19% 30.28 in 10.0 mi SSE 10.4 mph - N/A   Clear
2:35 PM 52.7 °F - 10.6 °F 19% 30.28 in 10.0 mi SSE 10.4 mph - N/A   Clear
2:55 PM 53.1 °F - 10.8 °F 18% 30.28 in 10.0 mi SSE 11.5 mph - N/A   Clear
3:15 PM 53.2 °F - 11.1 °F 19% 30.27 in 10.0 mi South 10.4 mph 16.1 mph N/A   Clear
3:35 PM 52.9 °F - 10.9 °F 19% 30.26 in 10.0 mi SSE 9.2 mph - N/A   Clear
3:55 PM 52.7 °F - 11.1 °F 19% 30.26 in 10.0 mi SSE 8.1 mph - N/A   Clear
4:15 PM 52.7 °F - 10.9 °F 19% 30.26 in 10.0 mi South 8.1 mph - N/A   Clear
4:35 PM 51.8 °F - 10.9 °F 19% 30.26 in 10.0 mi SSE 6.9 mph - N/A   Clear
4:55 PM 49.5 °F - 11.1 °F 21% 30.26 in 10.0 mi South 5.8 mph - N/A   Clear
5:15 PM 43.2 °F 39.0 °F 11.3 °F 27% 30.26 in 10.0 mi SSW 6.9 mph - N/A   Clear
5:35 PM 40.1 °F 35.3 °F 11.3 °F 31% 30.26 in 10.0 mi SSW 6.9 mph - N/A   Clear
5:55 PM 39.2 °F 34.2 °F 11.3 °F 32% 30.26 in 10.0 mi SSW 6.9 mph - N/A   Clear
6:15 PM 35.2 °F 30.3 °F 10.9 °F 37% 30.26 in 10.0 mi SSW 5.8 mph - N/A   Clear
6:35 PM 36.1 °F 31.4 °F 12.0 °F 37% 30.26 in 10.0 mi South 5.8 mph - N/A   Clear
6:55 PM 36.7 °F 32.9 °F 12.6 °F 37% 30.26 in 10.0 mi South 4.6 mph - N/A   Clear
7:15 PM 34.0 °F 31.0 °F 12.4 °F 41% 30.26 in 10.0 mi South 3.5 mph - N/A   Clear
7:35 PM 36.0 °F 29.6 °F 13.6 °F 40% 30.26 in 10.0 mi SSE 8.1 mph - N/A   Clear
7:55 PM 33.8 °F 28.6 °F 13.1 °F 43% 30.26 in 10.0 mi SW 5.8 mph - N/A   Clear
8:15 PM 33.4 °F 27.3 °F 13.5 °F 44% 30.26 in 10.0 mi SSW 6.9 mph - N/A   Clear
8:35 PM 32.0 °F 26.4 °F 13.1 °F 46% 30.27 in 10.0 mi SW 5.8 mph - N/A   Clear
8:55 PM 32.0 °F 24.8 °F 15.6 °F 51% 30.27 in 10.0 mi SSW 8.1 mph - N/A   Clear
9:15 PM 33.3 °F 26.4 °F 18.3 °F 54% 30.27 in 10.0 mi SSW 8.1 mph - N/A   Clear
9:35 PM 32.9 °F 25.9 °F 19.4 °F 58% 30.26 in 10.0 mi South 8.1 mph - N/A   Clear
9:55 PM 32.5 °F 26.2 °F 19.8 °F 59% 30.27 in 10.0 mi SSW 6.9 mph - N/A   Clear
10:15 PM 31.6 °F 25.1 °F 19.9 °F 62% 30.26 in 10.0 mi South 6.9 mph - N/A   Clear
10:35 PM 29.7 °F 22.0 °F 18.5 °F 63% 30.26 in 10.0 mi SSW 8.1 mph - N/A   Clear
10:55 PM 31.3 °F 24.7 °F 19.4 °F 61% 30.25 in 10.0 mi SSW 6.9 mph - N/A   Clear
11:15 PM 32.0 °F 25.6 °F 19.9 °F 61% 30.25 in 10.0 mi South 6.9 mph - N/A   Clear
11:35 PM 31.6 °F 25.1 °F 19.6 °F 61% 30.24 in 10.0 mi SSW 6.9 mph - N/A   Clear
11:55 PM 28.8 °F 20.9 °F 17.4 °F 63% 30.24 in 10.0 mi SW 8.1 mph - N/A   Clear